Weather in Zakolpye

Russia / Vladimir Oblast     55°31′32″N   40°59′54″E
temp.,
°C
wind,
m/s
gust,
m/s
humid.,
%
clouds,
%
prec.,
mm/h
press.,
hPa
HPBL,
m
19 september, sun
sun1900:00+3ene3779100 0.0 1026154
03:00+2e3981100 0.0 1025230
06:00+2e3881100 0.0 1025220
09:00+6e4859100 0.0 1025509
12:00+9e5748100 0.0 10241068
15:00+10e5744100 0.0 10231198
18:00+9e51049100 0.0 1023727
21:00+8e51251100 0.0 1022720
20 september, mon
mon2000:00+7e61354100 0.0 1021750
03:00+5e51368100 0.5 1021709
06:00+4e61586100 3.3 1021744
09:00+4e71592100 6.5 1020826
12:00+5e71593100 3.1 1020907
15:00+5e71593100 4.6 1020919
18:00+5e71492100 0.6 1020991
21:00+6e71492100 2.2 1019936
21 september, tue
tue2100:00+6ese61490100 0.4 1019864
03:00+6ese61392100 1.5 1017865
06:00+6e61392100 1.6 1017754
09:00+6e61392100 1.7 1017710
12:00+7ese51292100 0.1 1016712
15:00+8ese51191100 1.9 1016666
18:00+7e41194100 1.4 1016653
21:00+7e51193100 1.9 1016519
22 september, wed
wed2200:00+6e51190100 1.1 1015453
03:00+6e41095100 2.9 1014504
06:00+6e4996100 1.3 1014488
09:00+6e3797100 2.0 1015383
12:00+7e2495100 0.1 1016367
15:00+10e3486100 0.1 1017633
18:00+9ene2694100 0.0 1018240
21:00+8ne269654 0.0 1018189
23 september, thu
thu2300:00+6ene249869 0.0 101872
03:00+5ene239829 0.0 101863
06:00+5e249855 0.0 101880
09:00+9e249192 0.0 1017304
12:00+14se247266 0.0 1016792
15:00+15ese3566100 0.3 1015740
18:00+11e3890100 0.3 1015226
21:00+11ese2794100 0.7 1014188